GFSGL_2pvu_pres_132.txt.gz
Presure
131 136 140 137 139 133 152 155 162 140 156 153 166 158 160 168 144 147 150 156 154 153 127 126 123 123 124 131 131 122 117 108 117 120 127 122 123 121 99 110 138 123 121
137 135 129 150 123 141 151 148 121 136 147 141 133 134 147 183 134 126 123 132 147 140 125 118 118 120 119 119 127 120 110 120 121 123 119 111 118 115 125 130 117 132 130
137 134 124 127 126 138 121 154 124 133 128 123 135 122 119 120 122 134 128 140 125 126 132 125 125 127 127 124 120 118 120 110 116 119 134 125 118 123 127 123 119 126 127
145 128 133 134 141 136 125 121 126 140 125 130 131 138 133 144 127 118 128 129 121 122 127 128 123 126 130 118 118 116 120 118 122 119 125 123 126 124 111 121 124 132 125
144 133 125 125 123 125 125 139 136 125 123 129 136 131 132 125 136 146 123 126 127 129 123 124 128 128 124 125 126 130 129 114 121 122 123 131 133 129 125 117 116 128 130
138 131 125 136 132 150 123 132 124 125 133 132 130 125 139 123 150 151 128 126 127 130 120 123 125 129 126 129 133 133 128 125 130 135 135 128 123 126 123 120 123 126 123
118 153 148 128 138 132 133 138 137 138 134 123 133 143 134 133 129 127 123 122 131 132 129 131 122 125 130 128 128 126 129 126 130 127 128 134 134 140 126 128 128 130 135
135 133 127 139 134 130 126 131 136 139 135 143 139 142 137 146 148 149 142 139 141 133 134 129 131 126 133 132 133 127 124 138 121 149 123 136 118 122 156 148 156 125 152
153 166 169 145 162 130 126 140 145 145 134 132 136 142 139 129 137 134 133 162 155 139 158 161 120 135 129 134 143 140 138 120 117 132 137 127 132 145 151 151 151 155 118
152 147 142 124 113 135 150 124 131 132 135 129 141 130 163 128 154 122 150 135 129 132 131 132 135 137 149 126 123 120 131 122 123 130 128 128 133 155 159 129 115 127 139
160 158 157 140 140 158 154 134 142 136 127 141 143 145 132 146 157 140 140 120 140 123 156 157 140 144 148 141 133 137 135 140 141 137 135 146 151 128 154 158 151 140 131
137 140 164 152 154 134 158 145 141 133 162 142 153 136 141 147 135 135 135 128 135 145 144 141 137 134 142 137 147 144 165 149 156 154 144 137 152 146 170 151 152 158 133
167 136 141 159 146 141 142 126 149 133 137 128 162 137 139 138 143 142 145 143 144 135 137 140 135 150 143 139 143 151 134 134 149 155 149 118 129 143 145 146 133 191 169
153 142 154 122 141 132 135 134 150 153 136 136 147 159 153 154 135 148 141 148 136 126 127 136 134 134 130 168 141 133 142 149 158 142 142 147 143 136 176 149 156 144 111
127 141 140 165 150 145 143 136 127 144 167 155 135 137 134 139 146 123 146 151 153 130 150 146 146 126 141 143 149 135 137 143 142 147 148 151 162 133 161 138 152 124 133
121 164 149 144 144 150 150 144 151 145 156 128 154 162 164 159 135 157 159 118 150 141 136 115 143 159 116 142 157 144 169 137 189 151 128 138 141 150 153 169 170 136 132
143 163 142 166 151 119 126 148 141 138 121 150 124 142 157 134 132 149 136 128 134 152 143 149 162 160 147 126 123 149 145 162 175 135 188 200 193 185 161 191 184 206 187
167 156 163 142 145 157 155 168 153 115 152 161 137 177 145 133 142 125 159 135 136 162 138 164 137 145 170 171 177 153 167 169 184 186 192 186 146 200 188 200 195 184 193
224 180 168 157 161 155 158 147 158 160 130 162 170 123 155 123 157 136 135 144 134 163 147 152 169 160 163 158 176 172 191 186 188 182 183 196 186 187 177 187 193 197 196
183 188 207 174 174 168 153 170 167 167 160 153 166 162 178 181 142 159 136 144 170 136 165 151 172 158 173 182 183 188 198 189 188 188 202 196 192 187 185 193 184 189 186
199 185 200 188 196 193 173 173 180 169 168 170 171 168 171 168 170 169 187 171 169 164 185 190 192 193 199 202 203 182 188 178 181 192 178 180 190 191 195 198 194 190 193
224 235 200 225 193 185 192 188 183 180 185 171 169 178 169 172 171 179 183 177 173 179 182 200 203 187 193 187 199 192 184 187 190 192 203 195 184 196 204 204 201 264 276
197 233 221 233 241 193 224 212 204 188 188 186 188 193 194 184 190 186 198 200 195 190 198 177 185 182 187 198 181 193 193 199 202 199 197 205 234 213 312 328 401 442 409
225 208 202 215 217 219 220 217 208 205 196 200 204 202 189 195 218 197 185 187 188 190 174 180 186 185 174 195 191 202 199 211 209 228 299 366 364 356 358 364 445 423 405
264 261 234 215 215 214 216 223 225 222 217 220 209 212 194 176 168 165 167 189 197 198 185 175 195 183 201 193 207 213 198 328 333 368 357 350 345 335 334 360 392 366 356
239 247 258 250 214 216 214 215 212 207 203 199 205 207 207 204 204 204 200 203 207 204 196 199 191 257 268 245 281 290 281 358 355 348 340 344 334 324 318 327 333 357 349

GFSGL_2pvu_pres_138.txt.gz
Presure
126 165 163 166 157 181 161 183 148 143 144 161 147 148 164 133 136 139 149 136 142 169 128 124 125 126 133 127 129 124 112 115 126 113 124 123 126 123 126 124 110 112 127
159 173 173 166 166 156 158 152 150 178 177 148 162 152 149 149 151 159 153 154 167 135 124 128 127 125 125 120 125 127 129 132 120 124 130 126 124 131 126 118 135 128 127
126 157 134 134 174 165 167 164 175 163 168 166 164 163 164 177 200 180 174 155 149 125 134 125 127 129 124 123 129 116 121 124 129 131 130 127 126 126 124 132 127 133 153
132 134 163 150 133 168 149 166 159 138 173 142 188 172 177 144 166 133 135 135 142 150 150 135 138 124 115 123 131 134 124 121 123 123 125 118 123 129 132 122 125 128 126
143 138 140 153 116 145 149 150 134 128 145 149 148 133 151 133 143 130 147 146 117 113 152 120 128 148 141 124 128 129 126 127 135 134 126 126 140 118 130 140 155 136 134
100 139 138 128 156 132 142 148 152 152 126 124 123 128 119 125 123 125 128 143 143 142 149 150 126 123 122 132 119 127 115 109 129 131 116 140 125 149 127 126 146 136 136
153 150 134 148 141 133 132 141 139 135 139 136 136 137 132 133 134 132 137 134 132 129 130 130 137 142 128 132 131 130 128 128 131 140 157 158 167 153 123 135 140 140 145
137 145 141 149 135 143 140 139 132 137 128 121 130 135 132 130 130 140 132 155 131 130 138 138 138 138 139 138 132 128 131 143 125 154 156 130 125 136 136 140 137 138 132
133 145 137 151 143 151 130 141 141 140 144 150 136 129 126 139 145 138 134 138 138 143 145 135 137 141 147 146 148 134 140 156 120 127 131 140 138 135 143 136 135 138 143
137 134 134 147 140 152 152 136 167 135 130 133 128 134 134 141 146 147 150 138 136 151 136 142 143 131 148 150 134 122 128 142 137 139 140 138 141 142 139 141 131 139 127
163 138 119 116 142 148 143 146 148 145 145 152 141 129 140 134 153 147 154 135 137 150 150 138 137 133 137 131 139 152 138 152 137 136 137 139 130 139 140 133 132 141 163
169 154 140 148 137 150 147 130 146 147 155 143 140 131 130 147 136 123 153 158 149 155 165 144 140 144 156 154 147 140 150 154 146 143 135 138 122 144 148 156 152 148 127
215 158 158 142 158 147 128 135 153 141 151 146 151 131 127 132 152 139 148 149 137 141 158 131 157 147 163 149 153 160 152 166 153 140 132 157 160 159 160 127 128 150 141
192 218 159 154 163 137 141 126 131 141 133 161 129 128 145 152 135 118 133 155 144 139 127 154 130 174 152 156 149 150 173 164 140 137 135 141 152 129 160 142 155 146 139
175 166 187 155 150 156 152 146 143 171 143 154 147 136 148 113 158 145 142 120 151 159 127 180 142 169 169 147 137 130 140 143 129 159 144 118 166 145 126 128 125 123 158
264 187 181 213 154 146 156 160 148 142 141 146 130 144 121 159 127 166 140 119 148 175 169 152 123 170 173 168 135 172 179 169 152 123 129 149 136 120 180 138 167 167 161
254 248 252 173 196 169 152 153 160 144 133 156 152 151 161 145 122 159 166 124 164 134 146 169 128 119 168 136 171 162 127 170 173 161 172 158 163 172 153 158 178 160 171
250 243 258 233 180 196 164 152 145 148 150 144 144 145 147 153 146 148 122 152 137 151 163 171 136 173 178 130 178 175 138 159 158 148 166 157 169 169 175 172 159 172 181
247 219 245 250 258 188 198 161 152 150 155 153 152 145 139 145 148 160 136 169 134 148 155 162 156 162 141 154 166 174 170 178 163 162 175 169 174 168 170 170 170 170 178
236 234 242 261 267 211 181 194 206 156 159 158 153 152 152 151 150 152 144 163 163 150 155 149 125 159 169 161 174 171 162 166 176 170 158 167 166 167 184 176 187 182 221
227 227 225 243 245 250 213 178 194 193 162 161 144 153 153 143 147 158 163 152 166 170 163 146 150 146 173 157 167 169 164 172 178 171 166 178 183 184 184 158 170 184 229
221 219 216 228 231 231 232 237 167 187 196 212 159 180 162 162 168 156 153 155 156 155 168 166 169 163 174 177 167 172 158 168 164 179 178 176 182 177 184 206 233 246 275
224 227 221 219 219 219 225 224 232 169 179 217 192 179 161 160 164 169 158 162 165 160 151 155 162 161 152 175 150 162 160 167 166 172 179 168 207 237 230 235 258 256 308
211 220 226 217 216 216 216 214 231 230 220 169 168 186 225 215 173 162 162 161 151 162 159 158 155 155 165 164 162 156 182 183 193 170 226 177 218 237 258 259 258 358 344
258 209 251 230 221 220 218 214 214 215 218 217 226 225 223 226 177 166 170 193 209 205 208 218 222 224 217 221 176 225 168 215 250 249 211 225 278 276 274 333 353 351 345
262 250 236 204 209 222 217 218 221 217 210 225 225 227 221 222 222 217 213 215 216 198 214 209 205 186 188 192 206 205 208 225 231 266 258 267 276 277 309 333 346 343 333

GFSGL_2pvu_pres_141.txt.gz
Presure
171 180 158 152 184 187 178 135 157 134 166 132 145 127 141 134 131 137 144 141 140 147 154 123 131 135 137 142 130 118 128 133 124 118 131 125 128 127 122 114 132 125 129
162 203 169 152 157 164 205 144 150 165 167 156 126 131 119 147 136 127 136 133 144 157 151 121 126 121 132 140 118 133 128 133 134 123 130 134 131 130 127 116 135 124 124
135 168 224 137 156 163 164 186 145 160 152 144 147 146 152 135 133 137 139 141 140 125 163 156 138 142 127 126 126 131 120 128 124 124 132 126 122 131 129 137 112 131 132
136 135 175 199 158 145 172 137 147 164 154 172 161 157 153 160 148 160 157 159 155 167 161 152 121 144 136 137 122 128 131 123 133 129 129 125 130 125 125 138 121 137 158
149 143 133 172 191 165 161 162 162 160 174 155 147 157 155 153 155 152 187 174 170 159 145 134 122 128 120 118 126 122 127 129 124 127 119 123 132 113 127 152 159 167 128
138 153 138 135 127 172 168 159 163 168 180 165 165 168 169 171 189 172 147 135 144 147 142 141 118 116 142 148 132 127 133 130 128 116 127 127 126 141 153 151 132 117 143
130 133 133 136 143 131 154 166 161 144 136 132 167 172 128 162 161 147 135 133 131 129 137 128 139 142 146 149 149 143 134 127 130 129 129 126 133 147 126 154 132 140 135
144 137 134 150 152 137 136 133 171 124 146 142 136 134 135 115 126 127 130 137 124 127 132 140 138 133 125 128 135 135 127 133 135 139 132 149 139 154 128 134 138 141 139
136 148 142 147 149 141 145 136 135 154 133 149 140 137 133 138 135 140 139 129 139 136 128 135 134 137 127 138 143 142 143 149 150 150 135 121 134 148 133 138 142 141 127
150 138 139 139 150 147 153 145 152 138 131 140 130 129 145 140 132 127 141 139 128 143 131 141 141 139 145 143 137 146 146 141 152 139 141 150 157 162 147 155 134 134 131
158 151 154 147 131 145 126 136 156 157 147 142 146 147 153 135 152 133 144 145 154 143 136 143 148 148 147 151 145 155 156 147 144 131 152 143 149 140 154 156 160 172 130
225 175 154 158 147 157 148 137 133 144 140 142 142 151 139 139 138 145 157 155 168 137 147 149 152 162 129 141 165 142 182 166 156 146 148 148 164 168 166 140 147 144 136
217 224 207 158 159 149 150 138 163 157 139 147 137 155 114 132 136 128 148 144 151 154 144 160 130 140 168 140 132 134 140 173 137 148 162 168 164 137 134 132 166 126 145
174 197 213 216 163 152 165 148 149 139 158 160 124 140 153 132 139 153 154 118 151 131 149 138 144 144 139 138 166 140 151 156 153 161 148 171 127 121 175 199 202 169 159
412 239 175 208 209 170 156 155 154 148 151 143 149 153 152 157 146 142 141 162 149 144 141 143 146 126 145 150 145 158 141 143 157 119 126 184 126 117 183 174 160 165 177
362 305 247 179 200 213 209 160 156 154 145 145 159 145 151 161 154 130 157 147 138 138 156 156 137 143 151 120 146 155 154 164 126 151 159 158 140 160 162 139 177 146 157
287 280 279 240 178 184 199 211 158 141 154 153 152 161 146 143 156 145 152 138 133 148 150 128 160 127 154 166 154 162 123 181 134 125 179 139 162 137 128 140 168 158 167
261 265 271 273 231 222 175 203 203 172 161 155 155 150 153 157 150 154 151 145 143 155 158 150 119 156 168 166 162 162 161 138 160 160 174 146 167 163 141 139 148 187 184
248 249 259 256 257 248 222 171 201 218 184 191 147 153 130 153 150 156 156 162 118 149 156 153 162 164 163 148 151 139 162 168 147 171 161 147 164 179 160 184 165 181 170
238 243 245 245 249 255 255 244 166 184 209 162 185 164 158 153 155 152 144 153 155 153 158 156 156 154 158 161 156 150 170 165 163 171 175 173 180 182 170 178 160 170 179
237 240 234 240 246 250 249 263 245 198 154 180 200 200 166 161 160 162 156 152 152 149 152 159 151 155 160 159 169 157 171 169 159 173 172 172 174 171 162 172 167 172 173
234 238 233 229 234 240 238 259 230 237 222 211 159 152 182 187 212 185 165 165 156 156 155 159 150 150 155 165 170 161 162 170 160 162 166 168 183 177 175 185 174 194 220
221 223 232 234 244 229 231 231 265 221 238 231 217 218 207 171 190 183 173 170 180 164 164 163 163 166 162 162 163 160 161 163 169 162 169 174 168 187 202 209 198 244 250
218 206 211 223 229 231 228 224 228 232 261 236 222 223 222 212 223 225 166 180 183 184 184 192 184 193 188 212 205 214 214 188 211 206 195 197 191 183 241 242 276 240 290
297 293 222 211 206 212 225 225 218 223 223 225 230 244 238 218 210 206 206 204 203 201 201 177 191 201 177 190 183 177 188 197 199 241 228 226 233 221 256 291 267 289 282
259 272 267 268 234 212 206 205 208 217 223 221 217 220 221 226 233 229 230 230 227 225 223 225 233 237 232 231 228 225 224 217 217 212 235 253 265 260 266 280 279 281 281

GFSGL_2pvu_pres_144.txt.gz
Presure
177 168 161 201 226 225 229 219 220 151 173 161 139 145 133 161 125 149 154 150 144 135 123 134 125 127 143 140 117 128 120 121 127 126 129 134 132 131 134 121 125 142 127
169 180 179 164 142 207 143 207 203 178 160 136 158 141 147 128 133 147 151 149 126 141 148 129 126 129 127 143 135 131 116 142 136 139 128 131 137 130 129 131 130 139 116
149 169 193 159 199 151 168 196 158 175 162 141 151 134 142 139 152 153 143 143 149 132 135 148 124 135 124 129 119 115 149 136 119 121 138 139 124 128 136 120 128 125 112
144 147 172 180 146 176 181 152 150 163 131 103 147 147 137 143 136 145 144 140 143 144 144 148 158 152 118 145 128 129 135 121 126 123 132 127 133 132 131 134 122 134 141
144 144 142 144 170 162 131 186 150 162 154 167 151 129 115 130 139 150 135 144 143 140 137 158 154 162 166 124 143 157 125 123 130 127 138 128 132 119 124 127 136 132 141
139 145 149 149 178 182 161 177 172 151 154 152 148 152 148 154 148 155 143 155 140 153 153 149 119 155 119 125 153 149 148 126 149 130 126 141 136 118 131 133 132 135 141
153 143 142 148 148 156 195 166 168 182 149 154 157 160 158 165 160 159 162 160 159 166 183 165 172 132 134 158 155 124 129 147 137 125 147 147 132 129 135 140 130 136 136
163 155 141 147 134 142 167 154 166 163 164 116 163 173 142 157 156 160 122 164 148 172 161 157 163 143 128 128 127 127 140 141 136 137 139 135 131 140 144 141 148 126 141
146 149 151 149 142 139 141 180 140 170 168 169 162 117 183 138 171 168 168 170 192 170 121 130 134 127 136 143 137 141 145 132 134 134 139 143 151 138 152 148 136 153 156
160 150 157 156 128 146 151 143 136 177 139 161 162 169 140 174 174 131 117 182 126 148 126 123 125 122 150 127 138 144 151 146 145 151 153 157 134 165 171 161 153 144 142
211 187 157 156 159 153 150 137 152 160 178 142 183 143 149 129 134 133 135 137 149 127 144 124 144 142 153 147 147 130 144 156 146 163 132 137 151 152 140 145 138 141 160
235 230 196 161 156 162 145 149 135 136 152 144 150 170 146 148 157 145 154 151 136 151 132 155 139 138 164 140 143 151 142 139 156 146 144 158 153 124 148 148 167 147 142
253 229 238 220 168 158 159 163 150 145 147 143 158 141 136 136 159 126 151 144 150 127 162 146 145 129 140 120 119 139 160 118 146 134 125 156 162 144 154 129 184 168 147
287 180 257 238 197 210 169 163 165 154 156 145 149 125 154 117 139 125 129 150 132 133 154 151 157 149 136 144 144 143 140 153 155 149 132 152 129 148 146 124 161 146 153
265 259 262 174 237 235 232 173 166 162 165 154 156 150 150 138 138 121 140 125 139 135 136 134 161 146 110 146 140 159 117 162 162 129 140 145 156 135 162 146 164 128 150
261 256 269 264 151 264 244 227 201 172 162 161 163 152 145 156 143 148 148 155 156 126 135 145 157 129 164 146 155 145 151 158 150 122 136 143 123 155 168 153 163 154 173
251 275 311 311 262 245 290 262 232 226 173 165 159 158 165 154 152 147 143 146 144 146 148 170 165 173 153 153 169 159 161 143 157 152 167 181 163 180 173 136 177 166 174
240 285 250 269 294 299 301 209 247 240 216 203 165 161 154 154 158 152 142 142 152 151 143 146 154 157 156 155 151 145 153 159 159 170 171 131 153 153 158 169 175 152 168
232 285 264 263 262 269 274 287 240 189 239 233 213 172 161 157 153 155 152 149 162 159 155 155 153 140 151 153 145 154 155 162 152 149 150 163 171 165 172 168 151 168 170
229 239 249 250 250 248 255 261 271 232 186 227 203 186 151 163 161 162 161 153 154 153 155 158 158 146 154 153 152 168 155 152 150 163 164 163 167 164 160 169 164 162 177
267 224 237 245 238 244 249 252 255 254 227 166 177 186 217 182 195 127 159 164 163 165 163 135 161 152 163 167 157 154 166 151 164 163 159 169 170 172 157 167 165 171 204
249 250 225 234 233 237 238 239 247 248 244 244 214 164 169 182 203 194 195 198 190 192 192 189 183 162 157 170 168 170 170 166 165 165 171 165 166 176 186 192 193 191 182
328 247 241 220 236 234 228 230 233 241 248 243 232 212 220 164 164 177 195 177 190 211 182 180 193 190 190 185 203 200 188 186 181 186 183 179 174 186 194 184 194 201 213
330 311 245 234 218 232 234 224 224 231 244 232 228 238 252 218 211 199 164 168 171 169 197 201 186 209 195 163 156 163 156 176 208 198 213 214 215 214 215 210 212 196 245
260 303 318 246 224 216 214 220 230 234 231 234 241 234 235 232 237 235 219 213 214 205 205 209 210 230 219 225 217 213 178 191 222 204 205 198 201 210 204 229 220 228 287
233 239 248 278 294 250 216 211 208 210 216 225 226 227 222 240 221 217 223 218 223 223 221 217 208 206 204 203 205 200 202 205 210 213 233 242 223 219 241 270 277 279 291

GFSGL_2pvu_pres_147.txt.gz
Presure
169 179 158 178 226 212 220 186 192 204 202 176 204 164 151 136 127 133 150 151 145 149 151 128 130 129 136 134 143 126 122 121 138 113 122 127 135 148 136 132 138 124 132
159 170 158 167 198 221 163 200 204 186 173 185 190 153 151 140 150 143 152 156 148 148 142 147 127 131 128 131 147 146 145 129 140 132 132 131 126 133 136 133 137 129 136
149 135 172 172 179 207 215 229 200 188 183 205 174 156 146 136 160 153 143 152 152 154 136 149 148 141 122 116 137 139 146 146 134 139 116 134 121 130 130 135 125 130 132
143 149 156 178 169 189 196 215 228 200 206 214 164 153 138 142 161 152 132 153 160 150 135 148 149 138 122 134 129 138 126 113 133 135 123 124 125 125 134 132 127 120 136
135 139 153 166 189 171 138 152 209 178 219 171 170 150 154 154 151 147 138 149 157 152 144 135 128 147 153 134 142 130 163 148 147 153 126 123 127 137 137 127 137 111 134
145 156 138 146 162 148 172 151 129 183 204 153 140 152 152 147 153 141 144 151 145 145 144 148 149 142 146 150 152 168 115 128 133 125 136 136 150 144 127 134 139 143 142
152 153 156 143 144 170 170 159 176 153 154 180 151 154 154 142 146 147 149 144 145 135 142 147 126 125 137 161 141 157 158 174 168 157 134 149 144 144 146 143 138 136 142
153 133 148 158 147 144 158 162 164 156 169 163 167 173 154 146 150 156 155 152 152 139 148 138 149 162 160 155 165 163 155 157 148 145 135 134 141 145 130 140 143 139 143
197 143 158 141 154 153 145 154 142 153 152 185 154 160 147 160 160 155 159 153 155 141 158 164 160 152 151 169 170 145 121 129 142 132 146 149 141 144 134 154 150 137 130
188 198 192 146 154 147 163 147 140 139 171 176 149 188 159 164 162 164 132 163 170 124 158 168 158 150 155 131 127 115 173 132 148 152 149 129 154 142 135 144 131 139 133
229 183 200 193 160 153 147 167 142 150 149 134 168 149 164 152 155 156 161 178 183 174 176 166 170 165 173 122 139 147 134 141 138 125 163 123 158 144 132 145 137 131 152
219 219 217 188 197 184 157 157 167 145 142 149 155 138 165 153 147 168 148 167 151 153 182 168 148 128 154 152 130 153 139 135 138 141 123 146 140 158 137 141 150 138 126
237 232 237 232 182 193 197 168 163 122 157 154 139 146 183 140 164 149 164 173 153 169 150 133 127 143 169 154 139 153 144 148 160 139 143 121 149 149 152 140 158 146 133
221 234 240 234 235 236 199 201 178 168 162 160 154 146 150 148 127 162 142 138 139 138 140 139 166 155 119 120 133 128 129 137 151 144 129 157 150 140 144 125 150 150 151
219 218 237 229 259 309 283 233 221 207 174 166 162 160 157 157 151 144 151 126 123 151 117 146 131 133 143 125 133 143 142 137 142 146 134 160 140 155 150 150 159 155 168
220 215 218 233 279 298 288 302 263 228 213 196 173 165 161 153 150 147 151 148 146 132 147 145 146 155 149 152 148 147 148 152 147 138 124 152 158 154 162 157 156 144 157
216 214 225 279 286 292 286 296 279 279 260 194 202 176 173 160 154 159 157 149 146 145 144 144 145 143 146 141 121 145 142 128 157 132 152 153 144 165 153 154 162 157 160
206 224 276 275 263 277 270 252 279 364 281 257 198 195 202 172 170 163 155 154 154 151 150 149 145 146 149 157 161 148 154 153 141 154 149 157 155 153 159 160 136 150 168
216 243 264 255 241 250 252 277 267 297 325 261 255 235 215 197 193 172 163 160 154 152 138 155 156 155 139 161 156 154 153 157 159 150 149 158 148 160 166 172 167 170 168
264 273 257 276 230 269 256 244 237 246 275 288 238 253 250 219 215 197 197 172 162 161 161 158 155 157 154 153 157 153 153 154 157 162 164 168 161 168 160 170 173 171 181
273 268 263 276 225 240 256 239 242 247 236 284 245 289 252 239 225 210 191 192 204 169 163 161 162 162 128 136 162 162 167 163 154 158 179 178 158 171 170 168 193 163 198
268 357 369 295 243 227 238 230 238 245 238 245 256 261 244 229 225 223 173 196 193 185 190 185 188 166 169 165 148 153 161 162 172 175 168 171 159 182 185 197 190 179 194
249 328 352 328 258 235 228 235 234 237 239 248 238 243 250 217 223 232 221 199 181 189 180 187 182 192 190 189 193 190 190 188 183 173 188 186 192 176 177 189 193 191 201
227 250 318 327 276 248 228 223 231 229 228 230 234 238 242 239 212 216 225 209 173 175 198 182 179 180 183 178 182 185 197 182 183 186 166 173 177 202 197 194 196 206 211
235 224 238 260 331 279 247 219 217 228 225 225 225 230 230 242 229 237 211 221 199 211 179 173 172 190 185 176 172 160 174 188 186 204 202 195 197 196 195 197 239 216 215
216 232 228 226 232 244 255 293 249 213 216 225 226 220 219 226 233 242 233 218 227 221 217 219 215 209 206 207 204 205 203 202 199 198 190 189 193 214 231 226 226 219 215